Regional Weather Roundup
Issued by NWS

Home | Current Version | Previous Version | Text Only | Print | Product List | Glossary Off
Versions: 1 2 3 4 5 6 7 8 9 10 11 12 13 14 15 16 17 18 19 20 21 22 23 24 25 26 27 28 29 30 31 32 33 34 35 36 37 38 39 40 41 42 43 44 45 46 47 48 49 50

000
ASUS43 KDTX 281910
RWRMI
MICHIGAN HOURLY REGIONAL WEATHER ROUNDUP
NATIONAL WEATHER SERVICE DETROIT/PONTIAC MI
200 PM EST SUN DEC 28 2014

NOTE: "FAIR" INDICATES FEW OR NO CLOUDS BELOW 12,000 FEET WITH NO
SIGNIFICANT WEATHER AND/OR OBSTRUCTION TO VISIBILITY.

MIZ047>049-052>055-059>063-066>070-074>076-081>083-282000-
SOUTHEAST LOWER MICHIGAN

CITY           SKY/WX    TMP DP  RH WIND       PRES   REMARKS
ADRIAN         CLOUDY    35  25  66 NW12      30.09F
ALMA           MOSUNNY   33  21  60 W12       30.07F
ANN ARBOR      CLOUDY    36  23  59 W10       30.07F
BAD AXE        MOSUNNY   33  22  64 W10G20    30.04F
DETROIT CITY   CLOUDY    39  24  55 W10       30.07F
DETROIT        CLOUDY    37  24  59 W12       30.08S
FLINT          PTSUNNY   35  20  54 W14       30.07F
GROSSE ILE     CLOUDY    37  27  65 W8        30.06S
HILLSDALE      CLOUDY    33  25  72 W9        30.08R
HOWELL         PTSUNNY   34  21  60 W13       30.06F

CITY           SKY/WX    TMP DP  RH WIND       PRES   REMARKS
JACKSON        PTSUNNY   34  22  61 W8        30.07F
LAMBERTVILLE   CLOUDY    37  28  70 W7        30.09S
LANSING        PTSUNNY   33  22  63 W14       30.09F
LAPEER         NOT AVBL
MASON          PTSUNNY   34  22  62 W9        30.07S
MONROE         CLOUDY    37  27  65 W7        30.07S
MT. CLEMENS    PTSUNNY   38  25  60 W8        30.03F
PONTIAC        CLOUDY    33  19  56 W16       30.04F
PORT HOPE        N/A     34  19  54 W12G20    30.00F
PORT HURON     CLOUDY    36  25  64 W9        30.05F
TRI CITIES     MOSUNNY   35  21  56 W13       30.06F
YPSILANTI      CLOUDY    39  24  55 W8        30.08F
$$
MIZ043>046-050>051-056>058-064>065-071>073-077>080-282000-
SOUTHWEST LOWER MICHIGAN

CITY           SKY/WX    TMP DP  RH WIND       PRES   REMARKS
BATTLE CREEK   PTSUNNY   36  23  59 NW10      30.09F
BENTON HARBOR  PTSUNNY   31  24  75 W12       30.14S
BIG RAPIDS     CLOUDY    31  23  72 W5        30.05F
COLDWATER      PTSUNNY   34  24  67 W10       30.09F
HOLLAND        MOSUNNY   35  21  56 W8        30.12F
GRAND RAPIDS   MOSUNNY   33  21  61 W13       30.09F
KALAMAZOO      PTSUNNY   35  22  58 W9        30.10F
MARSHALL       PTSUNNY   35  24  63 W9        30.09R
MUSKEGON       CLOUDY    33  22  63 NW9       30.11F
$$
MIZ016>042-282000-
NORTHERN LOWER MICHIGAN

CITY           SKY/WX    TMP DP  RH WIND       PRES   REMARKS
ALPENA         PTSUNNY   33  17  51 SW14G21   30.00S
BEAVER ISLAND  MOSUNNY   28  20  71 W8        30.03S
BELLAIRE       CLOUDY    30  20  67 W7        30.05S
CADILLAC       PTSUNNY   28  19  70 W13G18    30.02F
CHARLEVOIX     CLOUDY    28  22  77 W14G22    30.06S
FRANKFORT      MOCLDY    29  22  78 W10G16    30.08F
GAYLORD        CLOUDY    26  19  74 W16       29.99S
GRAYLING       CLOUDY    28  19  69 W9G16     30.02F
HARBOR SPRINGS CLOUDY    28  20  72 W14G21    30.01S
HOUGHTON LAKE  CLOUDY    29  19  66 W12       30.02F
MANISTEE       CLOUDY    28  19  69 W12       30.09F
OSCODA         SUNNY     36  17  47 SW12G17   30.00F
PELLSTON       CLOUDY    28  20  71 W15       30.01S
TRAVERSE CITY  CLOUDY    30  21  69 W12       30.06S
$$
MIZ007>008-015-282000-
EASTERN UPPER MICHIGAN

CITY           SKY/WX    TMP DP  RH WIND       PRES   REMARKS
KINROSS        CLOUDY    27  21  80 W10       29.97S
MACKINAC ISLAN LGT SNOW  26  22  82 W9G16     30.00S
NEWBERRY       CLOUDY    23  20  88 W12       29.99S
S. S. MARIE    CLOUDY    26  18  71 W12       29.94F
$$
MIZ004>006-011>014-085-282000-
CENTRAL UPPER MICHIGAN

CITY           SKY/WX    TMP DP  RH WIND       PRES   REMARKS
MANISTIQUE     MOSUNNY   25  19  77 W10       30.03S
ESCANABA       MOSUNNY   23  16  74 NW10      30.06S
MENOMINEE      MOSUNNY   25  16  68 N7        30.08F
SAWYER-GWINN   PTSUNNY   19  12  73 NW12      30.02R
$$
MIZ001>003-009>011-084-282000-
WESTERN UPPER MICHIGAN

CITY           SKY/WX    TMP DP  RH WIND       PRES   REMARKS
IRON MOUNTAIN    N/A     20  10  65 NW10      30.04S
HOUGHTON       LGT SNOW  14   6  70 NW20      30.06R WCI  -3
COPPER HARBOR    N/A     18   9  68 N20G28    30.07R
IRONWOOD       CLOUDY    14   7  73 NW14      30.08F WCI  -1
$$

ABBREVIATIONS USED IN REMARKS
   TC - TEMPERATURE IN CELSIUS
  WCI - WIND CHILL INDEX
   HX - HEAT INDEX
  VSB - VISIBILITY



USA.gov is the U.S. government's official web portal to all federal, state and local government web resources and services.